PRIVATE WETTERSTATION BILLIGHEIM-ALLFELD                       ZURCK
Wetterdaten: Dienstag, 16.02.2016
Datum Zeit Temp. A. Temp. A. min Temp. A. max Feuchte A. Luftdruck Regen Wind Richtung Richtung Sonnenschein ET Solar Taupunkt Windchill Windben Empfang
16.02.2016 00:00 1,5 C 1,5 C 1,6 C 90 % 1025,1 hPa 0,0 l/m 1,6 km/h (1 Bft) N-NW 337 0 min 0,000 mm 0 W/m 0,0 C 1,5 C 8,0 km/h (2 Bft) 98 %
16.02.2016 00:10 1,5 C 1,5 C 1,6 C 90 % 1025,4 hPa 0,0 l/m 1,6 km/h (1 Bft) N-NW 337 0 min 0,000 mm 0 W/m 0,0 C 1,5 C 8,0 km/h (2 Bft) 97 %
16.02.2016 00:20 1,5 C 1,5 C 1,5 C 90 % 1025,8 hPa 0,0 l/m 3,2 km/h (1 Bft) N-NW 337 0 min 0,000 mm 0 W/m 0,0 C 1,5 C 11,3 km/h (2 Bft) 98 %
16.02.2016 00:30 1,4 C 1,4 C 1,5 C 90 % 1025,9 hPa 0,0 l/m 3,2 km/h (1 Bft) N-NW 337 0 min 0,000 mm 0 W/m -0,1 C 1,4 C 11,3 km/h (2 Bft) 98 %
16.02.2016 00:40 1,4 C 1,4 C 1,5 C 90 % 1026,0 hPa 0,0 l/m 4,8 km/h (1 Bft) N-NW 337 0 min 0,000 mm 0 W/m -0,1 C 1,4 C 11,3 km/h (2 Bft) 99 %
16.02.2016 00:50 1,4 C 1,4 C 1,4 C 90 % 1026,3 hPa 0,0 l/m 3,2 km/h (1 Bft) N-NW 337 0 min 0,000 mm 0 W/m -0,1 C 1,4 C 11,3 km/h (2 Bft) 100 %
16.02.2016 01:00 1,4 C 1,4 C 1,4 C 90 % 1026,5 hPa 0,0 l/m 1,6 km/h (1 Bft) N-NW 337 0 min 0,000 mm 0 W/m -0,1 C 1,4 C 8,0 km/h (2 Bft) 100 %
16.02.2016 01:10 1,4 C 1,4 C 1,4 C 90 % 1026,5 hPa 0,0 l/m 3,2 km/h (1 Bft) N-NW 337 0 min 0,000 mm 0 W/m -0,1 C 1,4 C 8,0 km/h (2 Bft) 99 %
16.02.2016 01:20 1,3 C 1,3 C 1,4 C 90 % 1026,7 hPa 0,0 l/m 1,6 km/h (1 Bft) N-NW 337 0 min 0,000 mm 0 W/m -0,2 C 1,3 C 9,7 km/h (2 Bft) 99 %
16.02.2016 01:30 1,3 C 1,2 C 1,3 C 90 % 1027,0 hPa 0,0 l/m 1,6 km/h (1 Bft) N-NW 337 0 min 0,000 mm 0 W/m -0,2 C 1,3 C 17,7 km/h (3 Bft) 100 %
16.02.2016 01:40 1,2 C 1,2 C 1,2 C 90 % 1027,1 hPa 0,0 l/m 3,2 km/h (1 Bft) N-NW 337 0 min 0,000 mm 0 W/m -0,3 C 1,2 C 17,7 km/h (3 Bft) 100 %
16.02.2016 01:50 1,1 C 1,1 C 1,2 C 90 % 1027,3 hPa 0,0 l/m 1,6 km/h (1 Bft) N-NW 337 0 min 0,000 mm 0 W/m -0,4 C 1,1 C 6,4 km/h (2 Bft) 100 %
16.02.2016 02:00 1,1 C 1,1 C 1,1 C 91 % 1027,6 hPa 0,0 l/m 3,2 km/h (1 Bft) N-NW 337 0 min 0,000 mm 0 W/m -0,2 C 1,1 C 11,3 km/h (2 Bft) 99 %
16.02.2016 02:10 1,0 C 1,0 C 1,1 C 91 % 1027,7 hPa 0,0 l/m 1,6 km/h (1 Bft) N 360 0 min 0,000 mm 0 W/m -0,3 C 1,0 C 14,5 km/h (3 Bft) 100 %
16.02.2016 02:20 0,9 C 0,9 C 1,0 C 90 % 1027,8 hPa 0,0 l/m 0,0 km/h (0 Bft) N-NW 337 0 min 0,000 mm 0 W/m -0,6 C 0,9 C 8,0 km/h (2 Bft) 100 %
16.02.2016 02:30 0,8 C 0,8 C 0,9 C 90 % 1027,9 hPa 0,0 l/m 1,6 km/h (1 Bft) N-NW 337 0 min 0,000 mm 0 W/m -0,6 C 0,8 C 14,5 km/h (3 Bft) 100 %
16.02.2016 02:40 0,6 C 0,6 C 0,8 C 90 % 1028,0 hPa 0,0 l/m 0,0 km/h (0 Bft) N-NW 337 0 min 0,000 mm 0 W/m -0,8 C 0,6 C 9,7 km/h (2 Bft) 100 %
16.02.2016 02:50 0,4 C 0,4 C 0,6 C 91 % 1028,2 hPa 0,0 l/m 0,0 km/h (0 Bft) N 360 0 min 0,000 mm 0 W/m -0,9 C 0,4 C 4,8 km/h (1 Bft) 100 %
16.02.2016 03:00 0,3 C 0,3 C 0,4 C 91 % 1028,2 hPa 0,0 l/m 0,0 km/h (0 Bft) N-NW 337 0 min 0,000 mm 0 W/m -1,0 C 0,3 C 4,8 km/h (1 Bft) 100 %
16.02.2016 03:10 0,3 C 0,3 C 0,3 C 91 % 1028,4 hPa 0,0 l/m 0,0 km/h (0 Bft) N-NW 337 0 min 0,000 mm 0 W/m -1,0 C 0,3 C 6,4 km/h (2 Bft) 100 %
16.02.2016 03:20 0,3 C 0,3 C 0,3 C 91 % 1028,3 hPa 0,0 l/m 0,0 km/h (0 Bft) N-NW 337 0 min 0,000 mm 0 W/m -1,0 C 0,3 C 4,8 km/h (1 Bft) 100 %
16.02.2016 03:30 0,4 C 0,3 C 0,4 C 91 % 1028,4 hPa 0,0 l/m 0,0 km/h (0 Bft) N-NW 337 0 min 0,000 mm 0 W/m -0,9 C 0,4 C 6,4 km/h (2 Bft) 100 %
16.02.2016 03:40 0,4 C 0,4 C 0,5 C 91 % 1028,6 hPa 0,0 l/m 0,0 km/h (0 Bft) N 0 0 min 0,000 mm 0 W/m -0,9 C 0,4 C 0,0 km/h (0 Bft) 90 %
16.02.2016 03:50 0,5 C 0,4 C 0,6 C 91 % 1028,6 hPa 0,0 l/m 0,0 km/h (0 Bft) N 360 0 min 0,000 mm 0 W/m -0,8 C 0,5 C 1,6 km/h (1 Bft) 100 %
16.02.2016 04:00 0,6 C 0,5 C 0,6 C 91 % 1028,8 hPa 0,0 l/m 0,0 km/h (0 Bft) N 0 0 min 0,000 mm 0 W/m -0,7 C 0,6 C 0,0 km/h (0 Bft) 100 %
16.02.2016 04:10 0,6 C 0,6 C 0,6 C 91 % 1028,9 hPa 0,0 l/m 1,6 km/h (1 Bft) N 360 0 min 0,000 mm 0 W/m -0,7 C 0,6 C 9,7 km/h (2 Bft) 100 %
16.02.2016 04:20 0,7 C 0,6 C 0,7 C 91 % 1029,0 hPa 0,0 l/m 0,0 km/h (0 Bft) N 360 0 min 0,000 mm 0 W/m -0,6 C 0,7 C 6,4 km/h (2 Bft) 100 %
16.02.2016 04:30 0,7 C 0,7 C 0,7 C 91 % 1029,1 hPa 0,0 l/m 0,0 km/h (0 Bft) N 360 0 min 0,000 mm 0 W/m -0,6 C 0,7 C 9,7 km/h (2 Bft) 100 %
16.02.2016 04:40 0,7 C 0,7 C 0,7 C 91 % 1029,3 hPa 0,0 l/m 0,0 km/h (0 Bft) N 360 0 min 0,000 mm 0 W/m -0,6 C 0,7 C 6,4 km/h (2 Bft) 100 %
16.02.2016 04:50 0,7 C 0,7 C 0,7 C 91 % 1029,3 hPa 0,0 l/m 0,0 km/h (0 Bft) N 360 0 min 0,000 mm 0 W/m -0,6 C 0,7 C 4,8 km/h (1 Bft) 100 %
16.02.2016 05:00 0,7 C 0,7 C 0,7 C 91 % 1029,4 hPa 0,0 l/m 0,0 km/h (0 Bft) N-NW 337 0 min 0,000 mm 0 W/m -0,6 C 0,7 C 3,2 km/h (1 Bft) 100 %
16.02.2016 05:10 0,7 C 0,7 C 0,7 C 91 % 1029,7 hPa 0,0 l/m 0,0 km/h (0 Bft) N 360 0 min 0,000 mm 0 W/m -0,6 C 0,7 C 6,4 km/h (2 Bft) 100 %
16.02.2016 05:20 0,7 C 0,7 C 0,7 C 91 % 1029,8 hPa 0,0 l/m 0,0 km/h (0 Bft) N-NO 22 0 min 0,000 mm 0 W/m -0,6 C 0,7 C 4,8 km/h (1 Bft) 100 %
16.02.2016 05:30 0,7 C 0,7 C 0,7 C 91 % 1029,9 hPa 0,0 l/m 0,0 km/h (0 Bft) N-NW 337 0 min 0,000 mm 0 W/m -0,6 C 0,7 C 6,4 km/h (2 Bft) 100 %
16.02.2016 05:40 0,7 C 0,7 C 0,7 C 91 % 1030,1 hPa 0,0 l/m 0,0 km/h (0 Bft) N 360 0 min 0,000 mm 0 W/m -0,6 C 0,7 C 8,0 km/h (2 Bft) 100 %
16.02.2016 05:50 0,7 C 0,7 C 0,7 C 91 % 1030,2 hPa 0,0 l/m 0,0 km/h (0 Bft) N 360 0 min 0,000 mm 0 W/m -0,6 C 0,7 C 6,4 km/h (2 Bft) 100 %
16.02.2016 06:00 0,7 C 0,6 C 0,7 C 91 % 1030,2 hPa 0,0 l/m 0,0 km/h (0 Bft) N 360 0 min 0,000 mm 0 W/m -0,6 C 0,7 C 3,2 km/h (1 Bft) 100 %
16.02.2016 06:10 0,6 C 0,6 C 0,7 C 91 % 1030,2 hPa 0,0 l/m 0,0 km/h (0 Bft) N-NW 337 0 min 0,000 mm 0 W/m -0,7 C 0,6 C 8,0 km/h (2 Bft) 100 %
16.02.2016 06:20 0,6 C 0,6 C 0,6 C 91 % 1030,3 hPa 0,0 l/m 0,0 km/h (0 Bft) N 360 0 min 0,000 mm 0 W/m -0,7 C 0,6 C 9,7 km/h (2 Bft) 100 %
16.02.2016 06:30 0,5 C 0,5 C 0,6 C 91 % 1030,4 hPa 0,0 l/m 0,0 km/h (0 Bft) N 360 0 min 0,000 mm 0 W/m -0,8 C 0,5 C 3,2 km/h (1 Bft) 100 %
16.02.2016 06:40 0,5 C 0,5 C 0,5 C 91 % 1030,4 hPa 0,0 l/m 0,0 km/h (0 Bft) N-NW 337 0 min 0,000 mm 0 W/m -0,8 C 0,5 C 1,6 km/h (1 Bft) 88 %
16.02.2016 06:50 0,4 C 0,4 C 0,5 C 91 % 1030,5 hPa 0,0 l/m 0,0 km/h (0 Bft) N-NW 337 0 min 0,000 mm 0 W/m -0,9 C 0,4 C 1,6 km/h (1 Bft) 100 %
16.02.2016 07:00 0,4 C 0,4 C 0,4 C 91 % 1030,6 hPa 0,0 l/m 0,0 km/h (0 Bft) N 360 0 min 0,000 mm 0 W/m -0,9 C 0,4 C 3,2 km/h (1 Bft) 100 %
16.02.2016 07:10 0,4 C 0,4 C 0,4 C 91 % 1030,8 hPa 0,0 l/m 0,0 km/h (0 Bft) N 360 0 min 0,000 mm 0 W/m -0,9 C 0,4 C 8,0 km/h (2 Bft) 100 %
16.02.2016 07:20 0,4 C 0,4 C 0,4 C 91 % 1030,9 hPa 0,0 l/m 0,0 km/h (0 Bft) N 360 0 min 0,000 mm 0 W/m -0,9 C 0,4 C 1,6 km/h (1 Bft) 100 %
16.02.2016 07:30 0,4 C 0,4 C 0,4 C 91 % 1031,1 hPa 0,0 l/m 0,0 km/h (0 Bft) N 360 0 min 0,000 mm 0 W/m -0,9 C 0,4 C 3,2 km/h (1 Bft) 100 %
16.02.2016 07:40 0,4 C 0,3 C 0,4 C 91 % 1031,2 hPa 0,0 l/m 0,0 km/h (0 Bft) N 360 0 min 0,000 mm 0 W/m -0,9 C 0,4 C 4,8 km/h (1 Bft) 100 %
16.02.2016 07:50 0,3 C 0,3 C 0,4 C 91 % 1031,3 hPa 0,0 l/m 0,0 km/h (0 Bft) N-NW 337 0 min 0,000 mm 0 W/m -1,0 C 0,3 C 4,8 km/h (1 Bft) 100 %
16.02.2016 08:00 0,3 C 0,3 C 0,3 C 91 % 1031,3 hPa 0,0 l/m 0,0 km/h (0 Bft) N-NW 337 0 min 0,000 mm 7 W/m -1,0 C 0,3 C 1,6 km/h (1 Bft) 100 %
16.02.2016 08:10 0,4 C 0,3 C 0,4 C 91 % 1031,7 hPa 0,0 l/m 0,0 km/h (0 Bft) N 360 0 min 0,000 mm 11 W/m -0,9 C 0,4 C 1,6 km/h (1 Bft) 100 %
16.02.2016 08:20 0,4 C 0,4 C 0,4 C 91 % 1031,7 hPa 0,0 l/m 0,0 km/h (0 Bft) N 360 0 min 0,000 mm 14 W/m -0,9 C 0,4 C 6,4 km/h (2 Bft) 100 %
16.02.2016 08:30 0,4 C 0,4 C 0,4 C 91 % 1031,8 hPa 0,0 l/m 0,0 km/h (0 Bft) N-NO 22 0 min 0,000 mm 18 W/m -0,9 C 0,4 C 4,8 km/h (1 Bft) 100 %
16.02.2016 08:40 0,5 C 0,4 C 0,5 C 91 % 1031,9 hPa 0,0 l/m 0,0 km/h (0 Bft) N 360 0 min 0,000 mm 19 W/m -0,8 C 0,5 C 4,8 km/h (1 Bft) 100 %
16.02.2016 08:50 0,6 C 0,5 C 0,6 C 91 % 1032,0 hPa 0,0 l/m 0,0 km/h (0 Bft) N 0 0 min 0,000 mm 21 W/m -0,7 C 0,6 C 0,0 km/h (0 Bft) 100 %
16.02.2016 09:00 0,6 C 0,6 C 0,6 C 91 % 1032,2 hPa 0,0 l/m 0,0 km/h (0 Bft) N 360 0 min 0,000 mm 21 W/m -0,7 C 0,6 C 4,8 km/h (1 Bft) 100 %
16.02.2016 09:10 0,6 C 0,6 C 0,6 C 90 % 1032,3 hPa 0,0 l/m 0,0 km/h (0 Bft) N 360 0 min 0,000 mm 30 W/m -0,8 C 0,6 C 3,2 km/h (1 Bft) 100 %
16.02.2016 09:20 0,7 C 0,6 C 0,7 C 90 % 1032,4 hPa 0,0 l/m 0,0 km/h (0 Bft) N 360 0 min 0,000 mm 33 W/m -0,7 C 0,7 C 1,6 km/h (1 Bft) 100 %
16.02.2016 09:30 0,7 C 0,7 C 0,7 C 89 % 1032,5 hPa 0,0 l/m 0,0 km/h (0 Bft) NW 315 0 min 0,000 mm 33 W/m -0,9 C 0,7 C 8,0 km/h (2 Bft) 100 %
16.02.2016 09:40 0,7 C 0,7 C 0,7 C 89 % 1032,6 hPa 0,0 l/m 0,0 km/h (0 Bft) N-NO 22 0 min 0,000 mm 33 W/m -0,9 C 0,7 C 6,4 km/h (2 Bft) 100 %
16.02.2016 09:50 0,7 C 0,7 C 0,7 C 89 % 1032,6 hPa 0,0 l/m 0,0 km/h (0 Bft) N 0 0 min 0,000 mm 44 W/m -0,9 C 0,7 C 0,0 km/h (0 Bft) 100 %
16.02.2016 10:00 0,8 C 0,7 C 0,8 C 89 % 1032,9 hPa 0,0 l/m 0,0 km/h (0 Bft) N 360 0 min 0,000 mm 42 W/m -0,8 C 0,8 C 1,6 km/h (1 Bft) 100 %
16.02.2016 10:10 0,8 C 0,8 C 0,8 C 89 % 1032,9 hPa 0,0 l/m 0,0 km/h (0 Bft) N 360 0 min 0,000 mm 42 W/m -0,8 C 0,8 C 6,4 km/h (2 Bft) 100 %
16.02.2016 10:20 0,8 C 0,8 C 0,9 C 89 % 1033,2 hPa 0,0 l/m 0,0 km/h (0 Bft) N-NW 337 0 min 0,000 mm 47 W/m -0,8 C 0,8 C 1,6 km/h (1 Bft) 100 %
16.02.2016 10:30 0,9 C 0,8 C 0,9 C 90 % 1033,2 hPa 0,0 l/m 0,0 km/h (0 Bft) N 360 0 min 0,000 mm 60 W/m -0,6 C 0,9 C 3,2 km/h (1 Bft) 99 %
16.02.2016 10:40 1,0 C 0,9 C 1,0 C 89 % 1033,4 hPa 0,0 l/m 0,0 km/h (0 Bft) N 360 0 min 0,000 mm 60 W/m -0,6 C 1,0 C 3,2 km/h (1 Bft) 100 %
16.02.2016 10:50 1,1 C 1,0 C 1,1 C 89 % 1033,4 hPa 0,0 l/m 0,0 km/h (0 Bft) N-NW 337 0 min 0,000 mm 69 W/m -0,5 C 1,1 C 9,7 km/h (2 Bft) 100 %
16.02.2016 11:00 1,1 C 1,1 C 1,1 C 89 % 1033,4 hPa 0,0 l/m 0,0 km/h (0 Bft) N-NW 337 0 min 0,025 mm 72 W/m -0,5 C 1,1 C 1,6 km/h (1 Bft) 100 %
16.02.2016 11:10 1,1 C 1,1 C 1,1 C 94 % 1033,4 hPa 0,0 l/m 0,0 km/h (0 Bft) N-NO 22 0 min 0,000 mm 70 W/m 0,2 C 1,1 C 4,8 km/h (1 Bft) 100 %
16.02.2016 11:20 1,1 C 1,1 C 1,1 C 88 % 1033,6 hPa 0,0 l/m 0,0 km/h (0 Bft) N-NO 22 0 min 0,000 mm 69 W/m -0,7 C 1,1 C 6,4 km/h (2 Bft) 100 %
16.02.2016 11:30 1,1 C 1,0 C 1,1 C 88 % 1033,6 hPa 0,0 l/m 0,0 km/h (0 Bft) N 360 0 min 0,000 mm 84 W/m -0,7 C 1,1 C 4,8 km/h (1 Bft) 100 %
16.02.2016 11:40 1,2 C 1,1 C 1,2 C 88 % 1033,6 hPa 0,0 l/m 0,0 km/h (0 Bft) N 360 0 min 0,000 mm 74 W/m -0,6 C 1,2 C 3,2 km/h (1 Bft) 100 %
16.02.2016 11:50 1,2 C 1,2 C 1,3 C 87 % 1033,7 hPa 0,0 l/m 1,6 km/h (1 Bft) N 360 0 min 0,000 mm 74 W/m -0,7 C 1,2 C 11,3 km/h (2 Bft) 100 %
16.02.2016 12:00 1,3 C 1,2 C 1,3 C 87 % 1033,7 hPa 0,0 l/m 0,0 km/h (0 Bft) N-NO 22 0 min 0,025 mm 77 W/m -0,6 C 1,3 C 8,0 km/h (2 Bft) 100 %
16.02.2016 12:10 1,2 C 1,2 C 1,2 C 87 % 1033,7 hPa 0,0 l/m 0,0 km/h (0 Bft) N-NO 22 0 min 0,000 mm 79 W/m -0,7 C 1,2 C 6,4 km/h (2 Bft) 100 %
16.02.2016 12:20 1,2 C 1,2 C 1,3 C 87 % 1033,6 hPa 0,0 l/m 0,0 km/h (0 Bft) NO 45 0 min 0,000 mm 84 W/m -0,7 C 1,2 C 6,4 km/h (2 Bft) 100 %
16.02.2016 12:30 1,3 C 1,2 C 1,3 C 86 % 1033,6 hPa 0,0 l/m 1,6 km/h (1 Bft) N-NO 22 0 min 0,000 mm 86 W/m -0,8 C 1,3 C 6,4 km/h (2 Bft) 100 %
16.02.2016 12:40 1,3 C 1,3 C 1,3 C 87 % 1033,6 hPa 0,0 l/m 0,0 km/h (0 Bft) NO 45 0 min 0,000 mm 79 W/m -0,6 C 1,3 C 4,8 km/h (1 Bft) 100 %
16.02.2016 12:50 1,3 C 1,3 C 1,4 C 86 % 1033,5 hPa 0,0 l/m 0,0 km/h (0 Bft) N-NO 22 0 min 0,000 mm 74 W/m -0,8 C 1,3 C 6,4 km/h (2 Bft) 100 %
16.02.2016 13:00 1,3 C 1,3 C 1,4 C 86 % 1033,5 hPa 0,0 l/m 1,6 km/h (1 Bft) NO 45 0 min 0,025 mm 76 W/m -0,8 C 1,3 C 9,7 km/h (2 Bft) 100 %
16.02.2016 13:10 1,4 C 1,3 C 1,4 C 86 % 1033,4 hPa 0,0 l/m 0,0 km/h (0 Bft) NO 45 0 min 0,000 mm 84 W/m -0,7 C 1,4 C 1,6 km/h (1 Bft) 100 %
16.02.2016 13:20 1,4 C 1,4 C 1,4 C 86 % 1033,4 hPa 0,0 l/m 1,6 km/h (1 Bft) NO 45 0 min 0,000 mm 72 W/m -0,7 C 1,4 C 6,4 km/h (2 Bft) 100 %
16.02.2016 13:30 1,4 C 1,4 C 1,4 C 86 % 1033,4 hPa 0,0 l/m 0,0 km/h (0 Bft) NO 45 0 min 0,000 mm 88 W/m -0,7 C 1,4 C 6,4 km/h (2 Bft) 100 %
16.02.2016 13:50 1,4 C 1,4 C 1,4 C 85 % 1033,2 hPa 0,0 l/m 0,3 km/h (0 Bft) NO 38 0 min 0,001 mm 74 W/m -0,8 C 1,4 C 6,4 km/h (2 Bft) 100 %
16.02.2016 14:00 1,4 C 1,4 C 1,4 C 85 % 1033,2 hPa 0,0 l/m 1,2 km/h (1 Bft) NO 37 0 min 0,026 mm 60 W/m -0,8 C 1,4 C 6,4 km/h (2 Bft) 100 %
16.02.2016 14:10 1,4 C 1,4 C 1,4 C 85 % 1033,1 hPa 0,0 l/m 1,6 km/h (1 Bft) N-NO 28 0 min 0,000 mm 47 W/m -0,8 C 1,4 C 8,0 km/h (2 Bft) 100 %
16.02.2016 14:20 1,3 C 1,3 C 1,4 C 85 % 1033,0 hPa 0,0 l/m 1,3 km/h (1 Bft) NO 39 0 min 0,000 mm 42 W/m -0,9 C 1,3 C 6,4 km/h (2 Bft) 100 %
16.02.2016 14:30 1,3 C 1,2 C 1,3 C 85 % 1032,9 hPa 0,0 l/m 1,2 km/h (1 Bft) NO 35 0 min 0,000 mm 40 W/m -0,9 C 1,3 C 6,4 km/h (2 Bft) 100 %
16.02.2016 14:40 1,2 C 1,2 C 1,3 C 85 % 1033,1 hPa 0,0 l/m 0,4 km/h (0 Bft) NO 34 0 min 0,000 mm 35 W/m -1,0 C 1,2 C 6,4 km/h (2 Bft) 100 %
16.02.2016 14:50 1,2 C 1,2 C 1,2 C 85 % 1033,1 hPa 0,0 l/m 2,1 km/h (1 Bft) N-NO 30 0 min 0,000 mm 33 W/m -1,0 C 1,2 C 6,4 km/h (2 Bft) 91 %
16.02.2016 15:00 1,1 C 1,1 C 1,2 C 85 % 1033,1 hPa 0,0 l/m 3,4 km/h (1 Bft) N-NO 24 0 min 0,025 mm 35 W/m -1,1 C 1,1 C 9,7 km/h (2 Bft) 100 %
16.02.2016 15:10 1,1 C 1,1 C 1,1 C 85 % 1033,2 hPa 0,0 l/m 2,6 km/h (1 Bft) O 87 0 min 0,000 mm 35 W/m -1,1 C 1,1 C 9,7 km/h (2 Bft) 100 %
16.02.2016 15:20 1,0 C 1,0 C 1,1 C 85 % 1033,2 hPa 0,0 l/m 2,1 km/h (1 Bft) O-SO 114 0 min 0,000 mm 30 W/m -1,2 C 1,0 C 9,7 km/h (2 Bft) 100 %
16.02.2016 15:30 0,9 C 0,9 C 1,0 C 85 % 1033,2 hPa 0,0 l/m 1,5 km/h (1 Bft) O 94 0 min 0,000 mm 25 W/m -1,3 C 0,9 C 9,7 km/h (2 Bft) 100 %
16.02.2016 15:40 0,8 C 0,8 C 0,9 C 85 % 1033,3 hPa 0,0 l/m 1,8 km/h (1 Bft) O-NO 69 0 min 0,000 mm 21 W/m -1,4 C 0,8 C 17,7 km/h (3 Bft) 100 %
16.02.2016 15:50 0,8 C 0,8 C 0,9 C 85 % 1033,2 hPa 0,0 l/m 1,7 km/h (1 Bft) O-NO 77 0 min 0,000 mm 18 W/m -1,4 C 0,8 C 8,0 km/h (2 Bft) 100 %
16.02.2016 16:00 0,8 C 0,8 C 0,8 C 86 % 1033,3 hPa 0,0 l/m 1,1 km/h (1 Bft) NO 42 0 min 0,000 mm 19 W/m -1,3 C 0,8 C 6,4 km/h (2 Bft) 100 %
16.02.2016 16:10 0,7 C 0,7 C 0,8 C 85 % 1033,2 hPa 0,0 l/m 1,4 km/h (1 Bft) NO 34 0 min 0,000 mm 25 W/m -1,5 C 0,7 C 8,0 km/h (2 Bft) 100 %
16.02.2016 16:20 0,7 C 0,7 C 0,7 C 86 % 1033,3 hPa 0,0 l/m 0,7 km/h (0 Bft) N-NO 33 0 min 0,000 mm 21 W/m -1,4 C 0,7 C 6,4 km/h (2 Bft) 100 %
16.02.2016 16:30 0,7 C 0,7 C 0,7 C 86 % 1033,3 hPa 0,0 l/m 1,4 km/h (1 Bft) NO 39 0 min 0,000 mm 16 W/m -1,4 C 0,7 C 8,0 km/h (2 Bft) 100 %
16.02.2016 16:40 0,7 C 0,7 C 0,7 C 85 % 1033,3 hPa 0,0 l/m 0,6 km/h (0 Bft) NO 45 0 min 0,000 mm 11 W/m -1,5 C 0,7 C 6,4 km/h (2 Bft) 100 %
16.02.2016 16:50 0,7 C 0,7 C 0,7 C 86 % 1033,3 hPa 0,0 l/m 0,9 km/h (0 Bft) NO 45 0 min 0,000 mm 11 W/m -1,4 C 0,7 C 8,0 km/h (2 Bft) 100 %
16.02.2016 17:00 0,6 C 0,6 C 0,7 C 86 % 1033,3 hPa 0,0 l/m 0,0 km/h (0 Bft) NO 45 0 min 0,000 mm 7 W/m -1,5 C 0,6 C 1,6 km/h (1 Bft) 100 %
16.02.2016 17:10 0,6 C 0,6 C 0,7 C 86 % 1033,3 hPa 0,0 l/m 0,2 km/h (0 Bft) N-NO 26 0 min 0,000 mm 5 W/m -1,5 C 0,6 C 8,0 km/h (2 Bft) 91 %
16.02.2016 17:20 0,6 C 0,6 C 0,6 C 86 % 1033,3 hPa 0,0 l/m 0,2 km/h (0 Bft) N 5 0 min 0,000 mm 0 W/m -1,5 C 0,6 C 4,8 km/h (1 Bft) 100 %
16.02.2016 17:30 0,6 C 0,6 C 0,6 C 86 % 1033,2 hPa 0,0 l/m 0,0 km/h (0 Bft) N 10 0 min 0,000 mm 0 W/m -1,5 C 0,6 C 1,6 km/h (1 Bft) 100 %
16.02.2016 17:40 0,6 C 0,6 C 0,6 C 86 % 1033,2 hPa 0,0 l/m 0,0 km/h (0 Bft) N 10 0 min 0,000 mm 0 W/m -1,5 C 0,6 C 0,0 km/h (0 Bft) 100 %
16.02.2016 17:50 0,6 C 0,6 C 0,6 C 86 % 1033,1 hPa 0,0 l/m 0,4 km/h (0 Bft) NO 38 0 min 0,000 mm 0 W/m -1,5 C 0,6 C 4,8 km/h (1 Bft) 99 %
16.02.2016 18:00 0,6 C 0,6 C 0,6 C 86 % 1033,3 hPa 0,0 l/m 0,2 km/h (0 Bft) NO 34 0 min 0,000 mm 0 W/m -1,5 C 0,6 C 4,8 km/h (1 Bft) 100 %
16.02.2016 18:10 0,5 C 0,5 C 0,6 C 86 % 1033,2 hPa 0,0 l/m 0,1 km/h (0 Bft) NO 34 0 min 0,000 mm 0 W/m -1,6 C 0,5 C 3,2 km/h (1 Bft) 100 %
16.02.2016 18:20 0,5 C 0,5 C 0,5 C 86 % 1033,2 hPa 0,0 l/m 0,0 km/h (0 Bft) NO 34 0 min 0,000 mm 0 W/m -1,6 C 0,5 C 1,6 km/h (1 Bft) 100 %
16.02.2016 18:30 0,5 C 0,5 C 0,5 C 86 % 1033,2 hPa 0,0 l/m 0,2 km/h (0 Bft) NO 34 0 min 0,000 mm 0 W/m -1,6 C 0,5 C 4,8 km/h (1 Bft) 90 %
16.02.2016 18:40 0,4 C 0,4 C 0,5 C 86 % 1033,2 hPa 0,0 l/m 0,1 km/h (0 Bft) N 355 0 min 0,000 mm 0 W/m -1,7 C 0,4 C 4,8 km/h (1 Bft) 100 %
16.02.2016 18:50 0,4 C 0,4 C 0,4 C 86 % 1033,2 hPa 0,0 l/m 0,0 km/h (0 Bft) N-NO 21 0 min 0,000 mm 0 W/m -1,7 C 0,4 C 1,6 km/h (1 Bft) 100 %
16.02.2016 19:00 0,3 C 0,3 C 0,4 C 86 % 1033,2 hPa 0,0 l/m 0,1 km/h (0 Bft) N-NO 24 0 min 0,000 mm 0 W/m -1,8 C 0,3 C 4,8 km/h (1 Bft) 100 %
16.02.2016 19:10 0,2 C 0,2 C 0,3 C 86 % 1033,3 hPa 0,0 l/m 0,0 km/h (0 Bft) N-NO 24 0 min 0,000 mm 0 W/m -1,9 C 0,2 C 1,6 km/h (1 Bft) 100 %
16.02.2016 19:20 0,2 C 0,2 C 0,2 C 86 % 1033,2 hPa 0,0 l/m 0,0 km/h (0 Bft) N-NO 24 0 min 0,000 mm 0 W/m -1,9 C 0,2 C 0,0 km/h (0 Bft) 100 %
16.02.2016 19:30 0,1 C 0,1 C 0,2 C 86 % 1033,1 hPa 0,0 l/m 0,0 km/h (0 Bft) N-NO 24 0 min 0,000 mm 0 W/m -2,0 C 0,1 C 1,6 km/h (1 Bft) 100 %
16.02.2016 19:40 -0,1 C -0,1 C 0,1 C 86 % 1032,9 hPa 0,0 l/m 0,7 km/h (0 Bft) N-NO 30 0 min 0,000 mm 0 W/m -2,2 C -0,1 C 4,8 km/h (1 Bft) 100 %
16.02.2016 19:50 -0,3 C -0,3 C -0,1 C 87 % 1032,9 hPa 0,0 l/m 0,1 km/h (0 Bft) N-NO 30 0 min 0,000 mm 0 W/m -2,2 C -0,3 C 3,2 km/h (1 Bft) 100 %
16.02.2016 20:00 -0,4 C -0,5 C -0,3 C 87 % 1032,9 hPa 0,0 l/m 0,1 km/h (0 Bft) N-NO 24 0 min 0,000 mm 0 W/m -2,3 C -0,4 C 3,2 km/h (1 Bft) 100 %
16.02.2016 20:10 -0,6 C -0,6 C -0,4 C 88 % 1032,6 hPa 0,0 l/m 0,4 km/h (0 Bft) N-NO 28 0 min 0,000 mm 0 W/m -2,3 C -0,6 C 4,8 km/h (1 Bft) 100 %
16.02.2016 20:20 -0,7 C -0,7 C -0,6 C 88 % 1032,5 hPa 0,0 l/m 0,1 km/h (0 Bft) N-NO 27 0 min 0,000 mm 0 W/m -2,4 C -0,7 C 3,2 km/h (1 Bft) 100 %
16.02.2016 20:30 -0,7 C -0,7 C -0,7 C 89 % 1032,5 hPa 0,0 l/m 0,3 km/h (0 Bft) N-NO 30 0 min 0,000 mm 0 W/m -2,3 C -0,7 C 4,8 km/h (1 Bft) 100 %
16.02.2016 20:40 -0,7 C -0,7 C -0,7 C 89 % 1032,2 hPa 0,0 l/m 1,2 km/h (1 Bft) NO 35 0 min 0,000 mm 0 W/m -2,3 C -0,7 C 6,4 km/h (2 Bft) 100 %
16.02.2016 20:50 -0,8 C -0,8 C -0,7 C 89 % 1032,1 hPa 0,0 l/m 0,3 km/h (0 Bft) NO 36 0 min 0,000 mm 0 W/m -2,4 C -0,8 C 8,0 km/h (2 Bft) 100 %
16.02.2016 21:00 -0,7 C -0,8 C -0,7 C 89 % 1032,2 hPa 0,0 l/m 1,2 km/h (1 Bft) N-NO 33 0 min 0,000 mm 0 W/m -2,3 C -0,7 C 6,4 km/h (2 Bft) 100 %
16.02.2016 21:10 -0,7 C -0,8 C -0,7 C 89 % 1032,1 hPa 0,0 l/m 3,2 km/h (1 Bft) NO 45 0 min 0,000 mm 0 W/m -2,3 C -0,7 C 9,7 km/h (2 Bft) 97 %
16.02.2016 21:20 -0,7 C -0,7 C -0,7 C 89 % 1032,0 hPa 0,0 l/m 1,6 km/h (1 Bft) NO 45 0 min 0,000 mm 0 W/m -2,3 C -0,7 C 9,7 km/h (2 Bft) 98 %
16.02.2016 21:30 -0,7 C -0,7 C -0,7 C 89 % 1031,9 hPa 0,0 l/m 1,6 km/h (1 Bft) NO 45 0 min 0,000 mm 0 W/m -2,3 C -0,7 C 8,0 km/h (2 Bft) 96 %
16.02.2016 21:40 -0,8 C -0,8 C -0,7 C 89 % 1031,9 hPa 0,0 l/m 1,6 km/h (1 Bft) NO 45 0 min 0,000 mm 0 W/m -2,4 C -0,8 C 6,4 km/h (2 Bft) 88 %
16.02.2016 21:50 -0,8 C -0,8 C -0,7 C 89 % 1031,7 hPa 0,0 l/m 0,0 km/h (0 Bft) N-NO 22 0 min 0,000 mm 0 W/m -2,4 C -0,8 C 4,8 km/h (1 Bft) 98 %
16.02.2016 22:00 -0,9 C -0,9 C -0,8 C 89 % 1031,6 hPa 0,0 l/m 0,0 km/h (0 Bft) N-NO 22 0 min 0,000 mm 0 W/m -2,5 C -0,9 C 6,4 km/h (2 Bft) 97 %
16.02.2016 22:10 -1,0 C -1,0 C -0,9 C 90 % 1031,5 hPa 0,0 l/m 0,0 km/h (0 Bft) N-NO 22 0 min 0,000 mm 0 W/m -2,4 C -1,0 C 9,7 km/h (2 Bft) 98 %
16.02.2016 22:20 -1,1 C -1,1 C -1,0 C 90 % 1031,3 hPa 0,0 l/m 0,0 km/h (0 Bft) N 0 0 min 0,000 mm 0 W/m -2,5 C -1,1 C 0,0 km/h (0 Bft) 97 %
16.02.2016 22:30 -1,1 C -1,1 C -1,1 C 90 % 1031,3 hPa 0,0 l/m 0,0 km/h (0 Bft) N-NO 22 0 min 0,000 mm 0 W/m -2,5 C -1,1 C 6,4 km/h (2 Bft) 97 %
16.02.2016 22:40 -1,2 C -1,2 C -1,1 C 90 % 1031,1 hPa 0,0 l/m 0,0 km/h (0 Bft) N-NO 22 0 min 0,000 mm 0 W/m -2,6 C -1,2 C 4,8 km/h (1 Bft) 97 %
16.02.2016 22:50 -1,2 C -1,2 C -1,2 C 90 % 1030,8 hPa 0,0 l/m 0,0 km/h (0 Bft) N-NO 22 0 min 0,000 mm 0 W/m -2,6 C -1,2 C 3,2 km/h (1 Bft) 87 %
16.02.2016 23:00 -1,2 C -1,2 C -1,2 C 90 % 1030,7 hPa 0,0 l/m 0,0 km/h (0 Bft) N-NO 22 0 min 0,000 mm 0 W/m -2,6 C -1,2 C 4,8 km/h (1 Bft) 98 %
16.02.2016 23:10 -1,2 C -1,2 C -1,2 C 90 % 1030,7 hPa 0,0 l/m 0,0 km/h (0 Bft) N-NO 22 0 min 0,000 mm 0 W/m -2,6 C -1,2 C 4,8 km/h (1 Bft) 97 %
16.02.2016 23:20 -1,2 C -1,2 C -1,2 C 90 % 1030,6 hPa 0,0 l/m 0,0 km/h (0 Bft) N-NO 22 0 min 0,000 mm 0 W/m -2,6 C -1,2 C 8,0 km/h (2 Bft) 99 %
16.02.2016 23:30 -1,1 C -1,2 C -1,1 C 90 % 1030,3 hPa 0,0 l/m 0,0 km/h (0 Bft) NO 45 0 min 0,000 mm 0 W/m -2,5 C -1,1 C 6,4 km/h (2 Bft) 98 %
16.02.2016 23:40 -1,1 C -1,2 C -1,1 C 91 % 1030,4 hPa 0,0 l/m 0,0 km/h (0 Bft) NO 45 0 min 0,000 mm 0 W/m -2,4 C -1,1 C 4,8 km/h (1 Bft) 100 %
16.02.2016 23:50 -1,0 C -1,1 C -1,0 C 91 % 1030,4 hPa 0,0 l/m 0,0 km/h (0 Bft) N-NO 22 0 min 0,000 mm 0 W/m -2,3 C -1,0 C 4,8 km/h (1 Bft) 100 %
_ Min-Zeit 22:40 22:40 22:50 13:50 00:00 - 02:20 - - - - - 22:40 22:40 03:40 22:50
Minimum _ -1,2 C -1,2 C -1,2 C 85 % 1025,1 hPa - 0,0 km/h (0 Bft) - - - - - -2,6 C -1,2 C 0,0 km/h (0 Bft) 87 %
_ Max-Zeit 00:00 00:00 00:00 11:10 11:50 00:00 00:40 - - 00:00 14:00 13:30 11:10 00:00 01:30 01:00
Maximum _ 1,6 C 1,5 C 1,6 C 94 % 1033,7 hPa 0,0 l/m 4,8 km/h
N-NW (1 Bft)
- - 0 min 0,026 mm 88 W/m 0,2 C 1,5 C 17,7 km/h
N (3 Bft)
100 %
Durchschnitt _ 0,5 C 0,5 C 0,6 C 89 % 1031,3 hPa #0,0 l/m 0,6 km/h (0 Bft) N-NW - #0 min. #0,127 mm 45 W/m -1,1 C 0,5 C 6,0 km/h (2 Bft) 99 %
PRIVATE WETTERSTATION BILLIGHEIM-ALLFELD - www.neckar-odenwald-wetter.de - Holger Sonntag